Find Starlink 31851

NORAD ID: 59844 Int'l Des: 2024-097 Owner: SPXS Country: US Constellation: starlink operational
LEOCIRCULAR

リアルタイム位置

3D地球を読み込み中...

Starlink 31851について

説明を読み込み中...

次回通過

Passes for default location (London). Set your location on the main map for personalized predictions.

高度履歴

Loading altitude history...

軌道要素

1 59844U 24097K 26125.54234142 .00002403 00000-0 96829-4 0 9990
2 59844 43.0012 313.1211 0000820 287.7735 72.3027 15.27578177110613
Epoch: May 5, 2026 • Age: 8 hours

現在のステータス

高度 486.5 km
速度 7.63 km/s
衛星直下点 42.20°N, 155.41°W
打ち上げ日 May 23, 2024
運用期間 1.9 years
タイプ internet

技術仕様

分類 Payload
質量 730.00 kg
乾燥質量 700.00 kg
総質量 730.00 kg
長さ 0.30 m
直径 4.10 m
スパン 29.00 m
形状 Box + pan
製造者 SPXS
バスタイプ Starlink V2M
フェーズステータス In Orbit
所有者/国 SPXS/US

Most Searched